| time (UTC) | temp F | wind direction | speed MPH | gust MPH | rain 1hr in | rain 24hr in | rain mn in | humidity % | barometer mb |
| 20260505065304 | 59 | 0 | 1.0 | 3.0 | 0.00 | 0.00 | 0.00 | 80 | 1010.7 |
| 20260505064805 | 59 | 0 | 0.0 | 2.0 | 0.00 | 0.00 | 0.00 | 80 | 1010.7 |
| 20260505064304 | 60 | 0 | 0.0 | 3.0 | 0.00 | 0.00 | 0.00 | 79 | 1010.6 |
| 20260505063805 | 60 | 0 | 1.0 | 3.0 | 0.00 | 0.00 | 0.00 | 79 | 1010.6 |
| 20260505063304 | 60 | 0 | 1.0 | 3.0 | 0.00 | 0.00 | 0.00 | 79 | 1010.6 |
| 20260505062804 | 61 | 0 | 1.0 | 3.0 | 0.00 | 0.00 | 0.00 | 78 | 1010.5 |
| 20260505062304 | 61 | 0 | 0.0 | 2.0 | 0.00 | 0.00 | 0.00 | 78 | 1010.5 |
| 20260505061804 | 61 | 0 | 0.0 | 3.0 | 0.00 | 0.00 | 0.00 | 77 | 1010.4 |
| 20260505060804 | 61 | 0 | 2.0 | 5.0 | 0.00 | 0.00 | 0.00 | 77 | 1010.3 |
| 20260505054304 | 63 | 0 | 0.0 | 0.0 | 0.00 | 0.00 | 0.00 | 74 | 1010.0 |
| 20260505053805 | 63 | 0 | 0.0 | 0.0 | 0.00 | 0.00 | 0.00 | 74 | 1009.9 |
| 20260505053304 | 63 | 0 | 0.0 | 0.0 | 0.00 | 0.00 | 0.00 | 74 | 1009.9 |
| 20260505052804 | 63 | 0 | 0.0 | 0.0 | 0.00 | 0.00 | 0.00 | 74 | 1009.8 |
| 20260505052305 | 64 | 0 | 0.0 | 0.0 | 0.00 | 0.00 | 0.00 | 73 | 1009.7 |
| 20260505051804 | 64 | 0 | 1.0 | 2.0 | 0.00 | 0.00 | 0.00 | 72 | 1009.7 |
| 20260505051304 | 64 | 0 | 0.0 | 2.0 | 0.00 | 0.00 | 0.00 | 72 | 1009.7 |
| 20260505050804 | 64 | 0 | 0.0 | 1.0 | 0.00 | 0.00 | 0.00 | 72 | 1009.6 |
| 20260505041304 | 67 | 0 | 0.0 | 0.0 | 0.00 | 0.00 | 0.00 | 66 | 1009.1 |
| 20260505040804 | 67 | 0 | 0.0 | 0.0 | 0.00 | 0.00 | 0.00 | 64 | 1009.0 |
| 20260505040304 | 67 | 0 | 0.0 | 0.0 | 0.00 | 0.00 | 0.00 | 64 | 1009.0 |
| 20260505035805 | 68 | 0 | 0.0 | 0.0 | 0.00 | 0.00 | 0.00 | 64 | 1008.9 |
| 20260505035304 | 68 | 0 | 0.0 | 0.0 | 0.00 | 0.00 | 0.00 | 63 | 1008.8 |
| 20260505034804 | 68 | 0 | 0.0 | 0.0 | 0.00 | 0.00 | 0.00 | 62 | 1008.7 |
| 20260505033804 | 69 | 0 | 0.0 | 0.0 | 0.00 | 0.00 | 0.00 | 61 | 1008.5 |
| 20260505033304 | 70 | 0 | 0.0 | 0.0 | 0.00 | 0.00 | 0.00 | 59 | 1008.5 |
| 20260505032804 | 70 | 0 | 0.0 | 0.0 | 0.00 | 0.00 | 0.00 | 59 | 1008.5 |
| 20260505031805 | 71 | 0 | 0.0 | 0.0 | 0.00 | 0.00 | 0.00 | 58 | 1008.4 |
| 20260505031304 | 71 | 0 | 0.0 | 0.0 | 0.00 | 0.00 | 0.00 | 56 | 1008.4 |
| 20260505030804 | 71 | 0 | 0.0 | 0.0 | 0.00 | 0.00 | 0.00 | 56 | 1008.3 |
| 20260505030305 | 72 | 0 | 0.0 | 0.0 | 0.00 | 0.00 | 0.00 | 56 | 1008.3 |
| 20260505025804 | 72 | 0 | 0.0 | 0.0 | 0.00 | 0.00 | 0.00 | 55 | 1008.2 |
| 20260505025305 | 72 | 0 | 0.0 | 0.0 | 0.00 | 0.00 | 0.00 | 54 | 1008.2 |
| 20260505024804 | 73 | 0 | 0.0 | 0.0 | 0.00 | 0.00 | 0.00 | 54 | 1008.1 |
| 20260505024304 | 73 | 0 | 0.0 | 0.0 | 0.00 | 0.00 | 0.00 | 53 | 1008.1 |
| 20260505023804 | 73 | 0 | 0.0 | 0.0 | 0.00 | 0.00 | 0.00 | 52 | 1008.1 |
| 20260505023304 | 74 | 0 | 0.0 | 0.0 | 0.00 | 0.00 | 0.00 | 51 | 1008.0 |
| 20260505022804 | 74 | 0 | 0.0 | 0.0 | 0.00 | 0.00 | 0.00 | 51 | 1008.0 |
| 20260505022304 | 74 | 0 | 0.0 | 1.0 | 0.00 | 0.00 | 0.00 | 50 | 1008.0 |
| 20260505021804 | 74 | 0 | 0.0 | 0.0 | 0.00 | 0.00 | 0.00 | 49 | 1008.0 |
| 20260505021304 | 75 | 0 | 0.0 | 0.0 | 0.00 | 0.00 | 0.00 | 49 | 1008.0 |
| 20260505020305 | 76 | 0 | 0.0 | 0.0 | 0.00 | 0.00 | 0.00 | 48 | 1008.0 |
| 20260505015804 | 76 | 0 | 0.0 | 1.0 | 0.00 | 0.00 | 0.00 | 48 | 1008.0 |
| 20260505015304 | 77 | 0 | 0.0 | 1.0 | 0.00 | 0.00 | 0.00 | 48 | 1008.0 |
| 20260505014804 | 77 | 0 | 0.0 | 1.0 | 0.00 | 0.00 | 0.00 | 48 | 1008.0 |
| 20260505013304 | 78 | 0 | 0.0 | 1.0 | 0.00 | 0.00 | 0.00 | 45 | 1008.0 |
| 20260505012804 | 78 | 0 | 0.0 | 1.0 | 0.00 | 0.00 | 0.00 | 46 | 1008.0 |
| 20260505012304 | 78 | 0 | 0.0 | 2.0 | 0.00 | 0.00 | 0.00 | 45 | 1008.0 |
| 20260505011804 | 78 | 0 | 0.0 | 1.0 | 0.00 | 0.00 | 0.00 | 44 | 1008.0 |
| 20260505011304 | 78 | 0 | 0.0 | 2.0 | 0.00 | 0.00 | 0.00 | 40 | 1008.0 |
| 20260505010805 | 78 | 0 | 0.0 | 0.0 | 0.00 | 0.00 | 0.00 | 41 | 1008.0 |
| 20260505010305 | 79 | 0 | 0.0 | 1.0 | 0.00 | 0.00 | 0.00 | 41 | 1008.0 |
| 20260505005804 | 79 | 0 | 0.0 | 3.0 | 0.00 | 0.00 | 0.00 | 40 | 1008.1 |
| 20260505005304 | 79 | 0 | 1.0 | 3.0 | 0.00 | 0.00 | 0.00 | 41 | 1008.0 |
| 20260505004804 | 79 | 0 | 1.0 | 5.0 | 0.00 | 0.00 | 0.00 | 42 | 1008.0 |
| 20260505004304 | 79 | 217 | 1.0 | 3.0 | 0.00 | 0.00 | 0.00 | 42 | 1008.0 |
| 20260505003805 | 79 | 217 | 0.0 | 3.0 | 0.00 | 0.00 | 0.00 | 41 | 1008.0 |
| 20260505003304 | 79 | 356 | 0.0 | 3.0 | 0.00 | 0.00 | 0.00 | 41 | 1008.1 |
| 20260505002804 | 79 | 220 | 0.0 | 3.0 | 0.00 | 0.00 | 0.00 | 41 | 1008.1 |
| 20260505002304 | 79 | 226 | 2.0 | 5.0 | 0.00 | 0.00 | 0.00 | 42 | 1008.1 |
| 20260505001804 | 79 | 0 | 0.0 | 2.0 | 0.00 | 0.00 | 0.00 | 42 | 1008.1 |
| 20260505001305 | 79 | 0 | 1.0 | 6.0 | 0.00 | 0.00 | 0.00 | 41 | 1008.1 |
| 20260505000803 | 79 | 0 | 0.0 | 2.0 | 0.00 | 0.00 | 0.00 | 42 | 1008.1 |
| 20260505000304 | 79 | 0 | 2.0 | 3.0 | 0.00 | 0.00 | 0.00 | 42 | 1008.2 |
| 20260504235804 | 79 | 211 | 1.0 | 5.0 | 0.00 | 0.00 | 0.00 | 42 | 1008.2 |
| 20260504234804 | 79 | 207 | 2.0 | 3.0 | 0.00 | 0.00 | 0.00 | 42 | 1008.2 |
| 20260504234304 | 79 | 214 | 1.0 | 6.0 | 0.00 | 0.00 | 0.00 | 42 | 1008.3 |
| 20260504233806 | 80 | 215 | 1.0 | 5.0 | 0.00 | 0.00 | 0.00 | 41 | 1008.3 |
| 20260504233305 | 80 | 215 | 1.0 | 2.0 | 0.00 | 0.00 | 0.00 | 39 | 1008.4 |
| 20260504232804 | 80 | 215 | 0.0 | 1.0 | 0.00 | 0.00 | 0.00 | 41 | 1008.3 |
| 20260504231804 | 80 | 205 | 1.0 | 6.0 | 0.00 | 0.00 | 0.00 | 42 | 1008.4 |
| 20260504231304 | 80 | 196 | 1.0 | 3.0 | 0.00 | 0.00 | 0.00 | 41 | 1008.3 |
| 20260504230804 | 80 | 124 | 1.0 | 5.0 | 0.00 | 0.00 | 0.00 | 39 | 1008.3 |
| 20260504230305 | 80 | 215 | 1.0 | 3.0 | 0.00 | 0.00 | 0.00 | 40 | 1008.4 |
| 20260504225804 | 80 | 207 | 0.0 | 2.0 | 0.00 | 0.00 | 0.00 | 40 | 1008.3 |
| 20260504225305 | 81 | 207 | 1.0 | 5.0 | 0.00 | 0.00 | 0.00 | 40 | 1008.5 |
| 20260504224804 | 81 | 205 | 3.0 | 5.0 | 0.00 | 0.00 | 0.00 | 39 | 1008.5 |
| 20260504224304 | 81 | 226 | 1.0 | 2.0 | 0.00 | 0.00 | 0.00 | 40 | 1008.5 |
| 20260504223804 | 81 | 226 | 0.0 | 3.0 | 0.00 | 0.00 | 0.00 | 41 | 1008.6 |
| 20260504222804 | 80 | 210 | 1.0 | 6.0 | 0.00 | 0.00 | 0.00 | 42 | 1008.6 |
| 20260504222305 | 80 | 269 | 1.0 | 6.0 | 0.00 | 0.00 | 0.00 | 44 | 1008.8 |
| 20260504221304 | 80 | 211 | 2.0 | 7.0 | 0.00 | 0.00 | 0.00 | 43 | 1008.9 |
| 20260504220804 | 80 | 212 | 3.0 | 7.0 | 0.00 | 0.00 | 0.00 | 42 | 1009.0 |
| 20260504220305 | 80 | 159 | 2.0 | 6.0 | 0.00 | 0.00 | 0.00 | 43 | 1009.0 |
| 20260504215804 | 80 | 190 | 0.0 | 5.0 | 0.00 | 0.00 | 0.00 | 42 | 1009.1 |
| 20260504215305 | 80 | 214 | 2.0 | 3.0 | 0.00 | 0.00 | 0.00 | 44 | 1009.1 |
| 20260504214805 | 79 | 231 | 1.0 | 3.0 | 0.00 | 0.00 | 0.00 | 44 | 1009.1 |
| 20260504214304 | 79 | 229 | 1.0 | 5.0 | 0.00 | 0.00 | 0.00 | 44 | 1009.2 |
| 20260504213305 | 79 | 202 | 0.0 | 6.0 | 0.00 | 0.00 | 0.00 | 44 | 1009.2 |
| 20260504212804 | 79 | 205 | 3.0 | 7.0 | 0.00 | 0.00 | 0.00 | 42 | 1009.2 |
| 20260504212304 | 80 | 232 | 1.0 | 3.0 | 0.00 | 0.00 | 0.00 | 42 | 1009.3 |
| 20260504211804 | 79 | 221 | 2.0 | 3.0 | 0.00 | 0.00 | 0.00 | 38 | 1009.3 |
| 20260504211303 | 79 | 190 | 1.0 | 6.0 | 0.00 | 0.00 | 0.00 | 40 | 1009.2 |
| 20260504210804 | 78 | 135 | 0.0 | 3.0 | 0.00 | 0.00 | 0.00 | 40 | 1009.2 |
| 20260504210305 | 78 | 89 | 2.0 | 5.0 | 0.00 | 0.00 | 0.00 | 38 | 1009.3 |
| 20260504205806 | 78 | 127 | 3.0 | 7.0 | 0.00 | 0.00 | 0.00 | 39 | 1009.3 |
| 20260504204804 | 78 | 126 | 1.0 | 7.0 | 0.00 | 0.00 | 0.00 | 39 | 1009.4 |
| 20260504204304 | 78 | 129 | 3.0 | 8.0 | 0.00 | 0.00 | 0.00 | 38 | 1009.4 |
| 20260504203804 | 78 | 189 | 2.0 | 3.0 | 0.00 | 0.00 | 0.00 | 38 | 1009.3 |
| 20260504203304 | 78 | 199 | 2.0 | 3.0 | 0.00 | 0.00 | 0.00 | 39 | 1009.3 |
| 20260504202803 | 78 | 220 | 2.0 | 3.0 | 0.00 | 0.00 | 0.00 | 38 | 1009.4 |
| 20260504202305 | 78 | 270 | 2.0 | 6.0 | 0.00 | 0.00 | 0.00 | 38 | 1009.4 |
| 20260504201805 | 77 | 201 | 1.0 | 7.0 | 0.00 | 0.00 | 0.00 | 40 | 1009.4 |
| 20260504200804 | 77 | 162 | 2.0 | 3.0 | 0.00 | 0.00 | 0.00 | 38 | 1009.4 |
| 20260504195804 | 76 | 155 | 1.0 | 8.0 | 0.00 | 0.00 | 0.00 | 40 | 1009.6 |
| 20260504195304 | 76 | 84 | 2.0 | 7.0 | 0.00 | 0.00 | 0.00 | 40 | 1009.5 |
| 20260504194804 | 76 | 100 | 2.0 | 3.0 | 0.00 | 0.00 | 0.00 | 39 | 1009.4 |
| 20260504194304 | 76 | 116 | 3.0 | 8.0 | 0.00 | 0.00 | 0.00 | 41 | 1009.5 |
| 20260504193305 | 77 | 107 | 2.0 | 7.0 | 0.00 | 0.00 | 0.00 | 41 | 1009.4 |
| 20260504192805 | 77 | 106 | 2.0 | 6.0 | 0.00 | 0.00 | 0.00 | 44 | 1009.5 |
| 20260504192304 | 77 | 119 | 2.0 | 7.0 | 0.00 | 0.00 | 0.00 | 43 | 1009.5 |
| 20260504191804 | 77 | 111 | 2.0 | 6.0 | 0.00 | 0.00 | 0.00 | 43 | 1009.5 |
| 20260504191304 | 77 | 128 | 2.0 | 5.0 | 0.00 | 0.00 | 0.00 | 43 | 1009.6 |
| 20260504190805 | 77 | 223 | 2.0 | 7.0 | 0.00 | 0.00 | 0.00 | 41 | 1009.6 |
| 20260504190304 | 78 | 190 | 2.0 | 5.0 | 0.00 | 0.00 | 0.00 | 42 | 1009.5 |
| 20260504185304 | 76 | 192 | 1.0 | 3.0 | 0.00 | 0.00 | 0.00 | 40 | 1009.7 |
| 20260504184803 | 76 | 190 | 1.0 | 2.0 | 0.00 | 0.00 | 0.00 | 40 | 1009.8 |
| 20260504183804 | 75 | 211 | 1.0 | 2.0 | 0.00 | 0.00 | 0.00 | 43 | 1009.8 |
| 20260504183304 | 75 | 211 | 0.0 | 1.0 | 0.00 | 0.00 | 0.00 | 44 | 1009.8 |
| 20260504182804 | 75 | 211 | 2.0 | 9.0 | 0.00 | 0.00 | 0.00 | 44 | 1009.8 |
| 20260504182304 | 75 | 202 | 1.0 | 2.0 | 0.00 | 0.00 | 0.00 | 43 | 1009.8 |
| 20260504181304 | 74 | 207 | 0.0 | 3.0 | 0.00 | 0.00 | 0.00 | 46 | 1009.8 |
| 20260504180805 | 73 | 207 | 0.0 | 3.0 | 0.00 | 0.00 | 0.00 | 45 | 1009.8 |
| 20260504180305 | 74 | 207 | 2.0 | 7.0 | 0.00 | 0.00 | 0.00 | 45 | 1009.8 |
| 20260504175803 | 74 | 200 | 2.0 | 6.0 | 0.00 | 0.00 | 0.00 | 45 | 1009.8 |
| 20260504175304 | 74 | 202 | 2.0 | 5.0 | 0.00 | 0.00 | 0.00 | 45 | 1009.8 |
| 20260504174803 | 74 | 115 | 0.0 | 3.0 | 0.00 | 0.00 | 0.00 | 51 | 1009.8 |
| 20260504173804 | 73 | 51 | 2.0 | 3.0 | 0.00 | 0.00 | 0.00 | 54 | 1009.8 |
| 20260504173304 | 73 | 199 | 1.0 | 3.0 | 0.00 | 0.00 | 0.00 | 56 | 1009.8 |
| 20260504172804 | 72 | 59 | 1.0 | 3.0 | 0.00 | 0.00 | 0.00 | 57 | 1009.8 |
| 20260504172304 | 72 | 137 | 1.0 | 3.0 | 0.00 | 0.00 | 0.00 | 58 | 1009.8 |
| 20260504171804 | 72 | 228 | 1.0 | 3.0 | 0.00 | 0.00 | 0.00 | 58 | 1009.8 |
| 20260504171304 | 71 | 122 | 1.0 | 5.0 | 0.00 | 0.00 | 0.00 | 59 | 1009.9 |
| 20260504170804 | 71 | 124 | 2.0 | 3.0 | 0.00 | 0.00 | 0.00 | 59 | 1009.9 |
| 20260504170305 | 70 | 125 | 1.0 | 6.0 | 0.00 | 0.00 | 0.00 | 60 | 1009.8 |
| 20260504160303 | 68 | 113 | 2.0 | 3.0 | 0.00 | 0.00 | 0.00 | 60 | 1009.6 |
| 20260504150803 | 62 | 0 | 1.0 | 2.0 | 0.00 | 0.00 | 0.00 | 72 | 1009.4 |
| 20260504150304 | 62 | 0 | 0.0 | 0.0 | 0.00 | 0.00 | 0.00 | 74 | 1009.3 |
| 20260504141304 | 54 | 0 | 1.0 | 2.0 | 0.00 | 0.00 | 0.00 | 85 | 1009.1 |
| 20260504140804 | 53 | 0 | 0.0 | 1.0 | 0.00 | 0.00 | 0.00 | 86 | 1009.1 |
| 20260504130805 | 52 | 0 | 0.0 | 0.0 | 0.00 | 0.00 | 0.00 | 84 | 1008.7 |
| 20260504130304 | 52 | 0 | 0.0 | 0.0 | 0.00 | 0.00 | 0.00 | 84 | 1008.6 |
| 20260504120304 | 53 | 0 | 0.0 | 0.0 | 0.00 | 0.00 | 0.00 | 82 | 1008.5 |
| 20260504110304 | 54 | 0 | 0.0 | 0.0 | 0.00 | 0.00 | 0.00 | 80 | 1008.4 |
| 20260504100303 | 55 | 0 | 0.0 | 0.0 | 0.00 | 0.00 | 0.00 | 78 | 1008.3 |
| 20260504081803 | 58 | 0 | 0.0 | 0.0 | 0.00 | 0.00 | 0.00 | 72 | 1008.3 |
| 20260504081304 | 58 | 0 | 0.0 | 0.0 | 0.00 | 0.00 | 0.00 | 72 | 1008.3 |
| 20260504080804 | 58 | 0 | 0.0 | 0.0 | 0.00 | 0.00 | 0.00 | 71 | 1008.4 |
| 20260504070305 | 59 | 0 | 0.0 | 0.0 | 0.00 | 0.00 | 0.00 | 68 | 1008.5 |